Location: St. Louis
(38.6270°N, 90.1994°W)
Time: 01:55:57
(UTC-06:00)

Courier 1B Rocket - Pass Details

Date: 05 December 2021
Orbit: 920 x 1202 km, 28.2° (Epoch: 16 January)

Event Time Altitude Azimuth Distance (km) Brightness Sun altitude
Rises 22:21:05 0° 239° (WSW) 3,705 - -64.8°
Reaches altitude 10° 22:24:09 10° 229° (SW) 2,714 - -65.3°
Maximum altitude 22:29:38 29° 171° (S) 1,649 - -66.2°
Drops below altitude 10° 22:34:55 10° 113° (ESE) 2,615 - -67.0°
Sets 22:37:49 0° 103° (ESE) 3,549 - -67.4°
